Regional Weather Roundup
Issued by NWS

Home | Current Version | Previous Version | Text Only | Print | Product List | Glossary On
Versions: 1 2 3 4 5 6 7 8 9 10 11 12 13 14 15 16 17 18 19 20 21 22 23 24 25 26 27 28 29 30 31 32 33 34 35 36 37 38 39 40 41 42 43 44 45 46 47 48 49 50
000
ASMX46 KSGX 252011
RWRMX

MEXICAN WEATHER ROUNDUP
NATIONAL WEATHER SERVICE SAN DIEGO CA
100 PM PDT SAT APR 25 2015

BAJA CALIFORNIA

CITY           SKY/WX    TMP DP  RH WIND       PRES   REMARKS
ENSENADA NW      N/A     65  32  29 SW3       30.02S
LA PAZ         MOSUNNY   82  32  16 N12       29.93F
LORETO         MOSUNNY   77  57  50 NE7       29.90F
MEXICALI       CLOUDY    73  41  31 W13       29.86F
S.J. DEL CABO  SUNNY     81  54  39 E14       29.93F
TIJUANA        CLOUDY    63  48  59 SW13      30.04S

NORTHWESTERN MEXICO

CITY           SKY/WX    TMP DP  RH WIND       PRES   REMARKS
CHIHUAHUA      SUNNY     81  28  15 S17       29.94F
CULIACAN       PTSUNNY   91  63  38 CALM      29.88F
GUAYMAS        SUNNY     81  48  32 S9        29.87F
HERMOSILLO     SUNNY     86  37  17 S10       29.92F
JUAREZ         SUNNY     77  39  25 W14       29.86F
LOS MOCHIS     PTSUNNY   84  48  28 W12       29.90F
OBREGON        SUNNY     88  28  11 SE8       29.87F

NORTHEASTERN MEXICO

CITY           SKY/WX    TMP DP  RH WIND       PRES   REMARKS
MATAMOROS      MOSUNNY   93  77  59 CALM      29.74F HX 107
MONCLOVA       MOSUNNY   91  64  40 NE8       29.80
MONTERREY      MOSUNNY   88  70  55 SE9       29.76F
NUEVO LAREDO   SUNNY     93  61  33 NE8       29.76F
PIEDRAS NEGRAS MOSUNNY   88  50  27 N6        29.81F
REYNOSA        PTSUNNY   84  73  70 NW14      29.74F
SALTILLO       MOSUNNY   90  52  27 CALM      29.97F
TORREON        PTSUNNY   91  41  17 SW16      29.90F
VICTORIA       PTSUNNY   99  57  25 S2        29.72F HX  97

WESTERN MEXICO

CITY           SKY/WX    TMP DP  RH WIND       PRES   REMARKS
AGUASCALIENTES PTSUNNY   77  32  19 W12G23    30.18F
DURANGO        PTSUNNY   79  36  21 SW14      30.12F
GUADALAJARA    PTSUNNY   86  39  19 S8        30.11F
MAZATLAN       MOSUNNY   84  63  48 SW12      29.86F
PTO. VALLARTA  MOSUNNY   84  73  70 SW13      29.86F
URUAPAN        MOSUNNY   79  52  38 S14       30.15F
ZACATECAS      PTSUNNY   79  41  25 SW35      30.19F

CENTRAL MEXICO

CITY           SKY/WX    TMP DP  RH WIND       PRES   REMARKS
CUERNAVACA     SUNNY     91  41  17 CALM      30.03F
LEON           PTSUNNY   82  48  30 S9        30.22F
MEXICO CITY    MOSUNNY   82  34  17 NW17      30.24
MORELIA        PTSUNNY   79  50  36 SE14      30.17F
POZA RICA      SUNNY    100  79  50 CALM      29.73F HX 119
PUEBLA         MOSUNNY   81  39  22 S13G24    30.25F
QUERETARO      PTSUNNY   84  46  26 W16       30.19F
S. LUIS POTOSI PTSUNNY   82  36  18 SW14      30.12F
TAMPICO        PTSUNNY   93  79  62 SE6       29.69F HX 110
TOLUCA         MOSUNNY   75  39  27 SE17      30.34F
VERACRUZ       SUNNY     95  75  52 E9        29.71F HX 107

SOUTHERN MEXICO

CITY           SKY/WX    TMP DP  RH WIND       PRES   REMARKS
ACAPULCO       SUNNY     86  77  74 SW13      29.81F HX  97
B. DE HUATULCO CLOUDY    90  77  66 SW14      29.83F HX 102
MINATITLAN     SUNNY     99  68  36 S9        29.67F HX 104
OAXACA         MOSUNNY   88  37  16 S15       30.10F
PTO. ESCONDIDO MOSUNNY   84  79  84 W14       29.98F HX  96
TAPACHULA      PTSUNNY   86  79  79 W12       29.84F HX  99
TUX. GUTIERREZ MOSUNNY   97  59  28 SE9       29.80F HX  96
VILLAHERMOSA   SUNNY     97  73  46 NE12      29.76F HX 107
ZIHUATANEJO    MOSUNNY   86  77  74 SW10      29.82F HX  97

YUCATAN PENINSULA

CITY           SKY/WX    TMP DP  RH WIND       PRES   REMARKS
CAMPECHE       SUNNY    104  63  25 SE13      29.72F HX 106
CANCUN         SUNNY     90  73  58 SE17      29.87F HX  98
CHETUMAL       SUNNY     88  75  66 SE23      29.84F HX  97
C. DEL CARMEN  SUNNY     97  64  34 SE12      29.74F HX  99
COZUMEL        MOSUNNY   88  73  62 S14       29.87F HX  96
MERIDA         SUNNY    104  63  25 SE12      29.76F HX 106

$$



USA.gov is the U.S. government's official web portal to all federal, state and local government web resources and services.